Showing default

ZHUHAI-1 03E, 44539

Orbit data source: Space-Track

ZHUHAI-1 03E, 44539 is a payload satellite owned by Zhuhai Orbita (CN) in SSO that was launched on Thu, 19 Sep 2019 UTC via a CHANG ZHENG 11 launch vehicle from the Jiuquan Satellite Launch Center, China (JSC). Payload-class satellites include a variety of spacecraft equipped with specific instruments for various scientific and technological missions. These include communications satellites like Starlink; space stations such as the ISS; scientific satellites like the Hubble; Earth observation satellites from companies like Planet Labs, Umbra, and HawkEye 360; GPS; miniature CubeSats for education and research; and military/defense satellites.

Loading next visibility...
Identifier
44539, 2019-060F
Orbit
SSO
Country
Flag of CNCN / PRC
Related business
Manufacturer
Harbin
Mission
Operational Commercial Imaging
Bus & Motor
OVS-1, Unknown motor
Mass
95 kg wet, 95 kg dry
Launch date (UTC)
2019-09-19 (6 years ago)
Launch vehicle
CHANG ZHENG 11
Launch site
Jiuquan Satellite Launch Center, China (JSC)
Object type
Payload
Rocket body
Debris
Shape & HBR
Box, Unknown HBR
Radar Cross Section
0.375 m², Medium (>0.1 m² and < 1m²)

Expand to show TLE details & history
Last TLE update: 15 hours ago

TLE from 15 hours ago
0 ZHUHAI-1 03E
1 44539U 19060F   25261.32460424  .00014408  00000-0  50320-3 0  9992
2 44539  97.5324  39.6933 0009970 259.7213 100.2903 15.29643163334043
Epoch: 2025-09-18T07:47Z
TLE epoch observation values (Epoch: 2025-09-18T07:47:25.806Z)
Latitude
-0.00001°
Longitude
-74.65205°
Altitude
481.206 km
Speed
7.624 km/s
True Right ascension
02h 38m 46s
True Declination
0° 00' 00"
Sunlit
Object was in full shadow at epoch
Visualization orbit readout
Latitude
Unknown
Longitude
Unknown
Altitude
Unknown
Speed
Unknown
Apparent Right ascension
Unknown
Apparent Declination
Unknown
Sunlit
N/A
Visualization observer readout
Local Sidereal Time
15:24:55
Azimuth
Unknown
Elevation
Unknown
Doppler factor
Unknown
Orbital elements
Apogee altitude
480.668 km
Perigee altitude
467.005 km
Semi-major axis
6,851.974 km
Eccentricity
0.001
Inclination
97.5324°
RAAN
39.6933°
Arg. of periapsis
259.7213°
True anomaly
100.40269°
Mean anomaly
100.2903°
Eccentric anomaly
100.3465°
Mean motion
3.82666 °/min
Orbital period
94.08 mins
BSTAR
0.0005032
Loading maneuver chart data...
Computing Atmospheric mass density...
Loading historical data...
Loading historical data...
Loading historical data...
Loading historical data...
Loading historical data...
Loading historical data...
Loading historical data...

Documentation

Showing up to 5 results
|